{"data":{"norad_id":61628,"epoch":"2026-09-21T07:35:35.551680Z","epoch_age_seconds":121459,"freshness":"FRESH","line1":"1 61628U 24191H   26264.31638370 -.00001321  00000+0 -38482-4 0  9998","line2":"2 61628  43.0015 129.8192 0001312 262.4793  97.5910 15.27584012107453","mean_motion":15.27584012,"eccentricity":0.0001312,"inclination_deg":43.0015,"raan_deg":129.8192,"arg_perigee_deg":262.4793,"mean_anomaly_deg":97.591,"bstar":-3.8482e-5,"rev_number":10745,"period_min":94.266501134342,"perigee_km":482.13689665499,"apogee_km":483.93726873429,"semimajor_km":6861.1740826946,"source":"CELESTRAK","updated_at":"2026-09-22T09:00:49.396019Z"}}